Location: Cheyres
(46.8153°N, 6.7877°E)
Time: 04:25:43
(UTC+00:00)

Terra - Pass Details

Date: 11 May 2021
Orbit: 701 x 703 km, 98.2° (Epoch: 18 June)

Event Time Altitude Azimuth Distance (km) Brightness Sun altitude
Exits shadow 19:53:54 - 101° (E) 2,331 4.0 -9.1°
Reaches altitude 10° 19:54:32 10° 95° (E) 2,174 3.9 -9.1°
Maximum altitude 19:57:20 16° 59° (ENE) 1,815 3.8 -9.5°
Drops below altitude 10° 20:00:08 10° 22° (NNE) 2,182 4.6 -9.9°
Sets 20:03:12 0° 1° (N) 3,105 5.8 -10.3°
